[[{"header":{"parameterUnit":"m.s-1","parameterCategory":1,"la1":30.2991,"la2":30.254,"lo1":-89.0895,"lo2":-89.0444,"dy":0.0017,"dx":0.0017,"nx":28,"ny":28,"refTime":"2024-06-19T09:00:00:Z","depth":0,"parameterNumber":2,"parameterNumberName":"U-component_of_WINDS"},"data":[0,0,0,0,0,0,0,0,0,0,0,0,0,0,0,0,0,0,0,0,0,0,0,0,0,0,0,0,0,0,0,0,0,0,0,0,0,0,0,0,0,0,0,0,0,0,0,0,0,0,0,0,0,0,0,0,0,0,-6.344,-6.344,0,-6.3397,-6.3396,-6.3396,-6.3208,-6.3204,-6.32,-6.3195,-6.3154,-6.3157,-6.316,0,0,0,0,0,0,0,0,0,0,0,0,0,-6.3364,-6.3367,-6.344,-6.3439,-6.3439,-6.3397,-6.3396,-6.3396,-6.3209,-6.3204,-6.3198,-6.3193,-6.3153,-6.3156,-6.316,0,0,0,0,0,0,0,0,0,0,0,0,0,-6.3367,-6.3367,-6.344,-6.3341,-6.3331,-6.3397,-6.3396,-6.3395,-6.321,-6.3204,-6.3197,-6.3191,-6.3152,-6.3156,-6.316,-6.3319,0,0,-6.3174,-6.3176,0,0,0,0,0,0,0,0,-6.3367,-6.337,-6.3356,-6.3348,-6.3337,-6.3301,-6.3354,-6.337,-6.3212,-6.3256,-6.3195,-6.3188,-6.3208,-6.3208,-6.3214,-6.3317,-6.3316,-6.3174,-6.3177,-6.3179,-6.318,0,0,0,0,0,0,0,-6.3367,-6.3371,-6.3423,-6.3356,-6.3345,-6.3299,-6.3292,-6.3356,-6.327,-6.3252,-6.3238,-6.3235,-6.3202,-6.321,-6.3212,-6.3315,-6.3174,-6.3178,-6.3181,-6.3183,-6.3548,-6.3555,0,0,0,0,0,0,-6.3381,-6.3372,-6.3424,-6.3421,-6.3336,-6.3306,-6.3298,-6.3319,-6.3268,-6.3254,-6.3241,-6.3227,-6.3206,-6.3207,-6.321,-6.3393,-6.3179,-6.3183,-6.3186,-6.3541,-6.355,-6.3557,0,0,0,0,0,0,-6.338,-6.3387,-6.3426,-6.3393,-6.3394,-6.3314,-6.334,-6.3322,-6.333,-6.326,-6.3244,-6.3265,-6.3201,-6.3203,-6.3294,-6.3389,-6.3185,-6.3189,-6.3533,-6.3544,-6.3553,-6.3761,0,0,0,0,0,0,-6.3378,-6.3388,-6.3446,-6.3396,-6.3397,-6.351,-6.3345,-6.3326,-6.3338,-6.3319,-6.3279,-6.3266,-6.3196,-6.3288,-6.3298,-6.3391,-6.3193,-6.3524,-6.3538,-6.355,-6.3746,-6.3778,-6.3805,0,0,0,0,0,-6.3376,-6.3507,-6.345,-6.3458,-6.3468,-6.3516,-6.3517,-6.3433,-6.3346,-6.3405,-6.3361,-6.3267,-6.3377,-6.3299,-6.3308,-6.3405,-6.3517,-6.3534,-6.3549,-6.3732,-6.3771,-6.3804,0,0,0,0,0,0,-6.3571,-6.3498,-6.3435,-6.3553,-6.3542,-6.3484,-6.3556,-6.3477,-6.3491,-6.3473,-6.3369,-6.3361,-6.3467,-6.3445,-6.3359,-6.3557,-6.3431,-6.345,-6.3568,-6.3604,-6.3633,-6.3637,-6.3196,0,0,0,0,0,-6.3628,-6.3672,-6.3606,-6.3717,-6.3714,-6.3637,-6.3654,-6.3591,-6.3576,-6.357,-6.3532,-6.3522,-6.3554,-6.3578,-6.3603,-6.3741,-6.3731,-6.3813,-6.3842,-6.3867,-6.3885,-6.3958,-6.3994,-6.3609,-6.3609,-6.3609,0,0,-6.3746,-6.3711,-6.3745,-6.3755,-6.3739,-6.3788,-6.3634,-6.3692,-6.3728,-6.3579,-6.3662,-6.3635,-6.3616,-6.3732,-6.3781,-6.3716,-6.3989,-6.3887,-6.3908,-6.3911,-6.3978,-6.4014,-6.4047,-6.362,-6.3618,-6.3616,0,0,-6.3985,-6.3963,-6.4053,-6.4041,-6.4019,-6.3967,-6.3989,-6.3943,-6.3919,-6.4001,-6.3891,-6.3932,-6.399,-6.3982,-6.3985,-6.4225,-6.414,-6.4236,-6.4392,-6.4464,-6.4494,-6.4521,-6.4607,-6.4639,-6.4253,-6.4254,-6.4254,0,-6.4134,-6.4203,-6.411,-6.4176,-6.4184,-6.4051,-6.4143,-6.4136,-6.4124,-6.4133,-6.4061,-6.4131,-6.411,-6.4222,-6.4281,-6.4288,-6.4311,-6.424,-6.4497,-6.4523,-6.4546,-6.4627,-6.466,-6.4266,-6.4264,-6.4263,-6.4262,0,-6.4388,-6.4438,-6.4513,-6.4505,-6.4522,-6.46,-6.4521,-6.4549,-6.4485,-6.4441,-6.4527,-6.4496,-6.4514,-6.4536,-6.4474,-6.4641,-6.4602,-6.4515,-6.4387,-6.4596,-6.4671,-6.4701,-6.4283,-6.4279,-6.4275,-6.4272,0,0,-6.4748,-6.4689,-6.4718,-6.4713,-6.468,-6.4717,-6.4791,-6.4808,-6.4835,-6.4832,-6.4892,-6.4944,-6.4864,-6.4869,-6.4804,-6.4868,-6.5061,-6.4773,-6.4771,-6.4829,-6.5245,-6.5311,-6.5349,-6.5005,-6.501,-6.5015,-6.5247,0,-6.4978,-6.5098,-6.5018,-6.5152,-6.5198,-6.5074,-6.5138,-6.5126,-6.5087,-6.5121,-6.5078,-6.5118,-6.5008,-6.5011,-6.5068,-6.5026,-6.5144,-6.5008,-6.5061,-6.5064,-6.507,-6.5387,-6.5457,-6.5677,-6.5276,-6.528,-6.5284,0,-6.5261,-6.527,-6.541,-6.5369,-6.5385,-6.5444,-6.5454,-6.5487,-6.5471,-6.5439,-6.5445,-6.5365,-6.5436,-6.5311,-6.5407,-6.5317,-6.5334,-6.5317,-6.5324,-6.5326,-6.5187,-6.5399,-6.5745,-6.5779,-6.5329,-6.5325,-6.5322,0,-6.5511,-6.5559,-6.5648,-6.5648,-6.5602,-6.5647,-6.563,-6.5608,-6.5624,-6.5633,-6.5643,-6.5661,-6.5671,-6.5688,-6.5616,-6.5531,-6.5723,-6.5591,-6.5699,-6.5702,-6.5745,-6.5744,-6.6101,-6.5756,-6.5756,-6.5755,-6.5754,0,-6.5776,-6.5866,-6.576,-6.5816,-6.5914,-6.5821,-6.5921,-6.5891,-6.5873,-6.5921,-6.5816,-6.5864,-6.5765,-6.5804,-6.5748,-6.5838,-6.5843,-6.582,-6.5804,-6.583,-6.5833,-6.584,-6.5823,-6.5764,-6.5762,-6.576,-6.5759,0,-6.6072,-6.6004,-6.6094,-6.6044,-6.6033,-6.6108,-6.6066,-6.6116,-6.607,-6.6133,-6.6143,-6.6073,-6.6113,-6.6042,-6.6074,-6.6036,-6.6162,-6.6122,-6.6167,-6.6156,-6.6269,-6.626,-6.6643,-6.6689,-6.6315,-6.6319,-6.6322,0,-6.6245,-6.6312,-6.6269,-6.6294,-6.6283,-6.6324,-6.634,-6.6252,-6.6274,-6.6262,-6.6314,-6.6345,-6.6365,-6.6435,-6.6388,-6.6412,-6.6372,-6.6505,-6.6375,-6.6399,-6.6375,-6.6373,-6.638,-6.6532,-6.6536,-6.654,-6.6543,0,-6.6561,-6.6525,-6.6551,-6.6568,-6.659,-6.6598,-6.6599,-6.6625,-6.6533,-6.6562,-6.6602,-6.6618,-6.665,-6.6683,-6.6696,-6.6679,-6.6598,-6.6584,-6.6611,-6.6638,-6.6662,-6.6652,-6.6241,-6.6576,-6.6573,-6.657,-6.6569,-6.6567,-6.6801,-6.6855,-6.6834,-6.6868,-6.686,-6.6864,-6.6908,-6.6869,-6.69,-6.6919,-6.6866,-6.6919,-6.6903,-6.6911,-6.6904,-6.6945,-6.6887,-6.6925,-6.6935,-6.6946,-6.6964,-6.6656,-6.6947,-6.6946,-6.6945,-6.6944,-6.6944,0,-6.7112,-6.7093,-6.7125,-6.713,-6.7157,-6.7076,-6.7074,-6.7103,-6.715,-6.7142,-6.7164,-6.7211,-6.7243,-6.7198,-6.7223,-6.7264,-6.7228,-6.7274,-6.727,-6.7268,-6.7015,-6.699,-6.7304,-6.7304,-6.7304,-6.7303,-6.7303,-6.7303,-6.7277,-6.7365,-6.7327,-6.741,-6.739,-6.744,-6.7446,-6.745,-6.7443,-6.7499,-6.7525,-6.7496,-6.7474,-6.7496,-6.7523,-6.7509,-6.7524,-6.7584,-6.7558,-6.7321,-6.7286,-6.7252,-6.7228,-6.7588,-6.7588,-6.7807,-6.781,-6.7811]},{"header":{"parameterUnit":"m.s-1","parameterCategory":1,"la1":30.2991,"la2":30.254,"lo1":-89.0895,"lo2":-89.0444,"dy":0.0017,"dx":0.0017,"nx":28,"ny":28,"refTime":"2024-06-19T09:00:00:Z","depth":0,"parameterNumber":3,"parameterNumberName":"V-component_of_WINDS"},"data":[0,0,0,0,0,0,0,0,0,0,0,0,0,0,0,0,0,0,0,0,0,0,0,0,0,0,0,0,0,0,0,0,0,0,0,0,0,0,0,0,0,0,0,0,0,0,0,0,0,0,0,0,0,0,0,0,0,0,-0.099,-0.099,0,-0.1017,-0.1017,-0.1017,-0.0985,-0.0984,-0.0983,-0.0982,-0.1012,-0.1014,-0.1016,0,0,0,0,0,0,0,0,0,0,0,0,0,-0.0912,-0.0914,-0.099,-0.099,-0.099,-0.1017,-0.1017,-0.1017,-0.0985,-0.0984,-0.0982,-0.0981,-0.1012,-0.1014,-0.1016,0,0,0,0,0,0,0,0,0,0,0,0,0,-0.0943,-0.0914,-0.099,-0.0978,-0.0977,-0.1016,-0.1017,-0.1017,-0.0986,-0.0984,-0.0982,-0.098,-0.1011,-0.1014,-0.1016,-0.107,0,0,-0.1025,-0.1027,0,0,0,0,0,0,0,0,-0.0942,-0.0946,-0.0979,-0.0978,-0.0978,-0.0996,-0.1001,-0.1035,-0.0986,-0.0982,-0.0982,-0.098,-0.1008,-0.1011,-0.102,-0.1072,-0.1073,-0.1026,-0.1027,-0.1029,-0.1029,0,0,0,0,0,0,0,-0.0939,-0.0945,-0.1,-0.098,-0.0979,-0.0971,-0.0974,-0.1007,-0.1005,-0.0983,-0.098,-0.0984,-0.1008,-0.1018,-0.1021,-0.1074,-0.1026,-0.1028,-0.103,-0.1031,-0.117,-0.1172,0,0,0,0,0,0,-0.0938,-0.0943,-0.1,-0.1001,-0.0955,-0.0974,-0.0977,-0.0992,-0.1005,-0.1005,-0.0985,-0.0982,-0.1014,-0.1018,-0.1022,-0.1087,-0.1029,-0.1031,-0.1033,-0.1168,-0.1171,-0.1173,0,0,0,0,0,0,-0.0937,-0.0944,-0.0999,-0.0972,-0.0978,-0.0977,-0.0994,-0.0993,-0.1003,-0.1007,-0.1006,-0.0996,-0.1012,-0.1018,-0.1058,-0.1087,-0.1033,-0.1035,-0.1166,-0.1169,-0.1172,-0.1216,0,0,0,0,0,0,-0.0935,-0.0943,-0.0964,-0.0972,-0.098,-0.1034,-0.0996,-0.0995,-0.1008,-0.1004,-0.1017,-0.1017,-0.1011,-0.1054,-0.1061,-0.109,-0.1038,-0.1163,-0.1167,-0.1171,-0.1212,-0.122,-0.1227,0,0,0,0,0,-0.0932,-0.0976,-0.0965,-0.0972,-0.1005,-0.1036,-0.104,-0.1032,-0.101,-0.1031,-0.1033,-0.1017,-0.1082,-0.1059,-0.1066,-0.1097,-0.1162,-0.1166,-0.117,-0.1209,-0.1218,-0.1227,0,0,0,0,0,0,-0.0973,-0.0977,-0.0965,-0.1013,-0.1024,-0.1031,-0.1057,-0.1043,-0.1062,-0.1058,-0.1047,-0.105,-0.1093,-0.1098,-0.1072,-0.1149,-0.1118,-0.1125,-0.1145,-0.1154,-0.1161,-0.1161,-0.104,0,0,0,0,0,-0.0986,-0.1011,-0.1013,-0.1055,-0.1061,-0.1058,-0.1071,-0.1064,-0.1076,-0.1081,-0.1086,-0.1098,-0.1122,-0.1138,-0.1159,-0.1211,-0.1214,-0.1236,-0.1243,-0.1249,-0.1256,-0.1284,-0.1294,-0.1187,-0.1187,-0.1187,0,0,-0.1017,-0.1022,-0.1039,-0.1064,-0.1072,-0.1098,-0.1063,-0.1092,-0.1111,-0.1085,-0.1124,-0.1128,-0.1141,-0.1188,-0.1209,-0.1194,-0.1285,-0.1255,-0.126,-0.1263,-0.1289,-0.1299,-0.1308,-0.119,-0.119,-0.1189,0,0,-0.1086,-0.1091,-0.1127,-0.1135,-0.1147,-0.1144,-0.1152,-0.116,-0.1162,-0.12,-0.1181,-0.1204,-0.1244,-0.1255,-0.1265,-0.1335,-0.1321,-0.1342,-0.1383,-0.141,-0.1418,-0.1426,-0.1452,-0.1462,-0.1348,-0.1348,-0.1348,0,-0.1123,-0.116,-0.1148,-0.1178,-0.119,-0.1165,-0.1201,-0.121,-0.1229,-0.1238,-0.122,-0.1269,-0.1277,-0.1325,-0.1342,-0.1351,-0.1361,-0.1342,-0.1418,-0.1425,-0.1432,-0.1457,-0.1467,-0.135,-0.135,-0.135,-0.135,0,-0.1205,-0.1232,-0.1259,-0.1277,-0.1291,-0.1324,-0.1317,-0.1333,-0.1323,-0.1322,-0.1361,-0.1368,-0.1391,-0.1401,-0.1392,-0.1448,-0.1439,-0.1419,-0.1389,-0.1445,-0.1469,-0.1478,-0.1354,-0.1353,-0.1353,-0.1352,0,0,-0.1304,-0.1312,-0.1323,-0.133,-0.134,-0.136,-0.1392,-0.1413,-0.1427,-0.144,-0.1467,-0.15,-0.1482,-0.1494,-0.1486,-0.1509,-0.1566,-0.1487,-0.1487,-0.1503,-0.1629,-0.1646,-0.1657,-0.1555,-0.1556,-0.1558,-0.1629,0,-0.1375,-0.1429,-0.1417,-0.1471,-0.1496,-0.1471,-0.1498,-0.1508,-0.1507,-0.1528,-0.1526,-0.1551,-0.1524,-0.1531,-0.1553,-0.1554,-0.1591,-0.1548,-0.1582,-0.1583,-0.1582,-0.1669,-0.1687,-0.1754,-0.1638,-0.1639,-0.164,0,-0.1465,-0.148,-0.1536,-0.1541,-0.1551,-0.1576,-0.1594,-0.1613,-0.1623,-0.162,-0.1632,-0.1619,-0.165,-0.1617,-0.1661,-0.1632,-0.1644,-0.1646,-0.1649,-0.1654,-0.1617,-0.1679,-0.1775,-0.1786,-0.1654,-0.1653,-0.1652,0,-0.1534,-0.1568,-0.1606,-0.1612,-0.1619,-0.1637,-0.164,-0.1648,-0.1661,-0.1676,-0.1684,-0.1703,-0.1714,-0.1729,-0.1721,-0.1697,-0.1767,-0.1733,-0.1768,-0.1768,-0.1786,-0.1786,-0.1888,-0.179,-0.1789,-0.1789,-0.1789,0,-0.1616,-0.1651,-0.1636,-0.166,-0.1699,-0.1684,-0.1724,-0.1724,-0.1731,-0.1755,-0.1733,-0.1756,-0.1743,-0.1765,-0.1758,-0.1796,-0.1801,-0.1801,-0.1799,-0.1804,-0.1805,-0.1815,-0.1811,-0.1792,-0.1791,-0.1791,-0.179,0,-0.1701,-0.1692,-0.1732,-0.1733,-0.1735,-0.1764,-0.1765,-0.1787,-0.1783,-0.1813,-0.182,-0.1814,-0.1838,-0.1831,-0.1857,-0.1853,-0.1901,-0.1893,-0.1898,-0.1897,-0.1933,-0.1931,-0.2048,-0.2063,-0.1952,-0.1953,-0.1954,0,-0.1755,-0.1782,-0.1785,-0.1799,-0.1804,-0.1826,-0.1839,-0.1824,-0.1839,-0.185,-0.1871,-0.1893,-0.191,-0.195,-0.1949,-0.1969,-0.1962,-0.2001,-0.1965,-0.1969,-0.1965,-0.1965,-0.1968,-0.201,-0.2011,-0.2012,-0.2013,0,-0.1853,-0.1846,-0.1865,-0.1882,-0.1897,-0.1909,-0.192,-0.1933,-0.1919,-0.1936,-0.1959,-0.1973,-0.1998,-0.2021,-0.2039,-0.2043,-0.2027,-0.2023,-0.2033,-0.204,-0.2043,-0.2044,-0.1921,-0.2022,-0.2021,-0.202,-0.202,-0.202,-0.1926,-0.1948,-0.1954,-0.1975,-0.1981,-0.1991,-0.2012,-0.2009,-0.2029,-0.2049,-0.2038,-0.2066,-0.2074,-0.2095,-0.2102,-0.2124,-0.2109,-0.2122,-0.2126,-0.213,-0.2136,-0.2037,-0.2126,-0.2126,-0.2126,-0.2126,-0.2125,0,-0.2024,-0.2026,-0.2045,-0.206,-0.2077,-0.2056,-0.2067,-0.2083,-0.2107,-0.2115,-0.2131,-0.2159,-0.218,-0.2179,-0.2199,-0.2216,-0.2209,-0.2222,-0.2222,-0.2224,-0.2147,-0.2138,-0.2228,-0.2228,-0.2228,-0.2228,-0.2228,-0.2228,-0.2078,-0.2115,-0.2109,-0.2149,-0.215,-0.2177,-0.2184,-0.2194,-0.22,-0.2231,-0.2248,-0.2246,-0.2251,-0.227,-0.2289,-0.2288,-0.2297,-0.2313,-0.231,-0.2239,-0.2229,-0.222,-0.2211,-0.2315,-0.2315,-0.2385,-0.2386,-0.2387]}]]